NAKANO
         **** Don't distribute anyone except personal use only ****
           (C) Copyright 2010 Orbit.Astro.Assoc./ComputingSection
write mail from CFAD0::NAKANO on 2010-03-22 08:10:35(JST).


    C/2008 N1 (Holmes)
Epoch 2009 Sept. 6.0 TT = JDT 2455080.5  
T 2009 Sept. 25.88688 TT                                Nakano
q   2.7835272            (2000.0)            P               Q
z  +0.0010031      Peri.  100.81596     -0.20613429     -0.97771414
 +/-0.0000008      Node   357.47251     -0.73288399     +0.18120820
e   0.9972079      Incl.  115.52089     +0.64837466     -0.10601250
From 752 observations 2008 July 1-2009 July 27, mean residual 0".53.
   (1/a)org.= +0.001123, (1/a)fut.= +0.001181 (+/-0.000001), Q= 8.

NAKANO
         **** Don't distribute anyone except personal use only ****
                (C) Copyright 2009 OAA/ComputingSection
write mail from CFAD0::NAKANO on 2009-07-29 07:36:14(JST).
 
    C/2008 N1 (Holmes)
Epoch 2009 Sept. 6.0 TT = JDT 2455080.5  
T 2009 Sept. 25.88857 TT                                Nakano
q   2.7835842            (2000.0)            P               Q
z  +0.0010093      Peri.  100.81481     -0.20611579     -0.97771791
 +/-0.0000015      Node   357.47231     -0.73288249     +0.18119568
e   0.9971905      Incl.  115.52049     +0.64838224     -0.10599913
From 495 observations 2008 July 1-2009 Apr. 28, mean residual 0".50.
   (1/a)org.= +0.001129, (1/a)fut.= +0.001188 (+/-0.000002), Q= 7.

NAKANO
         **** Don't distribute anyone except personal use only ****
                (C) Copyright 2009 OAA/ComputingSection
write mail from CFAD0::NAKANO on 2009-05-12 03:07:22(JST).
 




    C/2008 N1 (Holmes)
Epoch 2009 Sept. 6.0 TT = JDT 2455080.5  
T 2009 Sept. 25.89700 TT                                Nakano
q   2.7834959            (2000.0)            P               Q
z  +0.0010286      Peri.  100.81753     -0.20616399     -0.97770755
 +/-0.0000060      Node   357.47202     -0.73286620     +0.18123389
e   0.9971370      Incl.  115.51990     +0.64838533     -0.10602938
From 451 observations 2008 July 1-Nov. 27, mean residual 0".47.
   (1/a)org.= +0.001148, (1/a)fut.= +0.001207 (+/-0.000006), Q= 6.

NAKANO
         **** Don't distribute anyone except personal use only ****
                (C) Copyright 2008 OAA/ComputingSection
write mail from CFAD0::NAKANO on 2008-12-18 03:31:25(JST).


    C/2008 N1 (Holmes)

Epoch 2009 Sept. 6.0 TT = JDT 2455080.5  

T 2009 Sept. 25.90799 TT                                Nakano

q   2.7835305            (2000.0)            P               Q

z  +0.0010492      Peri.  100.81787     -0.20617093     -0.97770596

 +/-0.0000186      Node   357.47184     -0.73286032     +0.18124029

e   0.9970796      Incl.  115.51952     +0.64838977     -0.10603303

From 345 observations 2008 July 1-Oct. 1, mean residual 0".43.

   (1/a)org.= +0.001169, (1/a)fut.= +0.001227 (+/-0.000019), Q= 6.



NAKANO

         **** Don't distribute anyone except personal use only ****

                (C) Copyright 2008 OAA/ComputingSection

write mail from CFAD0::NAKANO on 2008-10-05 06:57:03(JST).



    C/2008 N1 (Holmes)

Epoch 2009 Sept. 6.0 TT = JDT 2455080.5

T 2009 Sept. 25.95984 TT                                Nakano

q   2.7835032            (2000.0)            P               Q

z  +0.0011455      Peri.  100.82358     -0.20627408     -0.97768355

 +/-0.0000450      Node   357.47085     -0.73281511     +0.18132425

e   0.9968115      Incl.  115.51740     +0.64840807     -0.10609618

From 216 observations 2008 July 1-Sept. 6, mean residual 0".36.

   (1/a)org.= +0.001265, (1/a)fut.= +0.001324 (+/-0.000045), Q= 5.

NAKANO

         **** Don't distribute anyone except personal use only ****

                (C) Copyright 2008 OAA/ComputingSection

write mail from CFAD0::NAKANO on 2008-09-07 23:13:57(JST).



◎C/2008 N1の軌道と予報位置



  その後に報告された8月26日と27日のASOのシェロードの観測によると,彗星は,

長円軌道を動く彗星の1つのようです.CCD核光度が8月9日に18.8等(井狩),

10日に18.6等(関;芸西),13日に18.3等,21日に18.5等(井狩),26日に18.7等

(全光度),29日に18.8等(シェロード)と報告されています.彗星は,よく集光

しているのでしょう.



    C/2008 N1 (Holmes)

T 2009 Sept. 25.90035 TT                                Nakano

q   2.7842129            (2000.0)            P               Q

z  +0.0011385      Peri.  100.79263     -0.20579898     -0.97777840

 +/-0.0000731      Node   357.46281     -0.73280328     +0.18103839

e   0.9968301      Incl.  115.51000     +0.64857238     -0.10570952

From 184 observations 2008 July 1-Aug. 29.

 

Date/        TT  R.A.(2000) Decl.     Delta   r     Daily motion  Mag.  Moon Age

              h    h  m       。  ,                      ,  / PA 。  m1      。

2008 Aug. 25 14  22 55.13  +18 20.5   3.844  4.744    19.7 / 274  18.2   89  .32

          26 14  22 53.75  +18 21.8   3.832  4.737    19.8 / 273  18.2  103  .22

          27 14  22 52.36  +18 22.9   3.821  4.730    20.0 / 273  18.2  116  .13

          28 14  22 50.96  +18 23.9   3.810  4.723    20.1 / 272  18.1  130  .06

          29 14  22 49.55  +18 24.8   3.799  4.715    20.2 / 272  18.1  142  .02

          30 14  22 48.13  +18 25.5   3.789  4.708    20.3 / 272  18.1  152  .00

          31 14  22 46.70  +18 26.0   3.779  4.701    20.4 / 271  18.1  158  .01

     Sept. 1 14  22 45.27  +18 26.4   3.769  4.694    20.5 / 271  18.1  157  .04

           2 14  22 43.83  +18 26.6   3.760  4.687    20.6 / 270  18.1  149  .09

           3 14  22 42.37  +18 26.7   3.751  4.680    20.7 / 270  18.1  139  .15

           4 14  22 40.92  +18 26.6   3.743  4.673    20.8 / 269  18.1  128  .23

           5 14  22 39.46  +18 26.3   3.735  4.665    20.9 / 269  18.1  117  .31

           6 14  22 37.99  +18 25.9   3.727  4.658    20.9 / 269  18.0  106  .41

           7 14  22 36.52  +18 25.4   3.720  4.651    21.0 / 268  18.0   95  .50

           8 14  22 35.05  +18 24.6   3.713  4.644    21.0 / 268  18.0   84  .59

           9 14  22 33.58  +18 23.8   3.707  4.637    21.0 / 267  18.0   72  .69

          10 14  22 32.10  +18 22.8   3.701  4.630    21.1 / 267  18.0   61  .77

          11 14  22 30.62  +18 21.6   3.695  4.623    21.1 / 266  18.0   50  .85

          12 14  22 29.15  +18 20.3   3.690  4.615    21.1 / 266  18.0   39  .91

          13 14  22 27.67  +18 18.8   3.685  4.608    21.1 / 266  18.0   30  .96

          14 14  22 26.20  +18 17.2   3.680  4.601    21.0 / 265  18.0   24  .99

          15 14  22 24.72  +18 15.5   3.676  4.594    21.0 / 265  17.9   25 1.00

          16 14  22 23.26  +18 13.6   3.673  4.587    21.0 / 265  17.9   32  .98

          17 14  22 21.79  +18 11.6   3.669  4.580    20.9 / 264  17.9   43  .94

          18 14  22 20.33  +18 09.5   3.666  4.573    20.9 / 264  17.9   55  .87

          19 14  22 18.87  +18 07.2   3.664  4.566    20.8 / 263  17.9   68  .79

          20 14  22 17.42  +18 04.8   3.661  4.559    20.7 / 263  17.9   81  .68

          21 14  22 15.98  +18 02.2   3.660  4.552    20.7 / 263  17.9   95  .57

          22 14  22 14.55  +17 59.6   3.658  4.544    20.6 / 262  17.9  108  .46

          23 14  22 13.12  +17 56.8   3.657  4.537    20.5 / 262  17.9  121  .35

          24 14  22 11.70  +17 53.9   3.656  4.530    20.3 / 262  17.9  133  .24

          25 14  22 10.29  +17 50.9   3.656  4.523    20.2 / 261  17.9  143  .16

          26 14  22 08.89  +17 47.8   3.656  4.516    20.1 / 261  17.9  152  .08

          27 14  22 07.50  +17 44.6   3.656  4.509    19.9 / 261  17.9  155  .03

          28 14  22 06.13  +17 41.3   3.657  4.502    19.8 / 260  17.8  151  .01

          29 14  22 04.76  +17 37.9   3.658  4.495    19.6 / 260  17.8  144  .00

          30 14  22 03.41  +17 34.4   3.659  4.488    19.5 / 259  17.8  134  .02

     Oct.  1 14  22 02.07  +17 30.8   3.661  4.481    19.3 / 259  17.8  123  .05

NAKANO

         **** Don't distribute anyone except personal use only ****

                (C) Copyright 2008 OAA/ComputingSection

write mail from CFAD0::NAKANO on 2008-08-31 05:21:55(JST).

   C/2008 N1 (Holmes)

T 2009 Sept. 25.21329 TT                                Nakano

q   2.7826982            (2000.0)            P               Q

                   Peri.  100.75770     -0.20514828     -0.97792180

                   Node   357.47268     -0.73322397     +0.18048983

e   1.0            Incl.  115.53473     +0.64830301     -0.10532037

From 85 observations 2008 July 1-29.

NAKANO

         **** Don't distribute anyone except personal use only ****

                (C) Copyright 2008 OAA/ComputingSection

write mail from CFAD0::NAKANO on 2008-08-02 06:17:22(JST).

 

戻ります。